Regional Weather Roundup
Issued by NWS

Home | Current Version | Previous Version | Graphics & Text | Print | Product List | Glossary On
Versions: 1 2 3 4 5 6 7 8 9 10 11 12 13 14 15 16 17 18 19 20 21 22 23 24 25 26 27 28 29 30 31 32 33 34 35 36 37 38 39 40 41 42 43 44 45 46 47 48 49 50
000
ASUS43 KLOT 050612
RWRIL

ILLINOIS REGIONAL WEATHER ROUNDUP
NATIONAL WEATHER SERVICE CHICAGO/ROMEOVILLE IL
1200 AM CST MON DEC 05 2016

NOTE: "FAIR" INDICATES FEW OR NO CLOUDS BELOW 12,000 FEET WITH NO
SIGNIFICANT WEATHER AND/OR OBSTRUCTIONS TO VISIBILITY.

* THESE STATIONS ARE NOT UNDER NWS QUALITY CONTROL. THEY ALSO MAY NOT
  REPORT WEATHER SUCH AS PRECIPITATION OR FOG.

ILZ001-002-007-009-015-016-024-050700-
NORTHWEST ILLINOIS

CITY           SKY/WX    TMP DP  RH WIND       PRES   REMARKS
MOLINE         CLOUDY    35  31  85 W10       29.97R WCI  27
6HR MIN TEMP:  34; 6HR MAX TEMP:  35;

STERLING*      CLOUDY    33  31  92 W14       29.96R WCI  23
SAVANNA*       CLOUDY    33  31  91 W8G16     29.96R WCI  27
$$

ILZ003-004-008-010-011-017-018-050700-
NORTH CENTRAL ILLINOIS

CITY           SKY/WX    TMP DP  RH WIND       PRES   REMARKS
ROCKFORD       CLOUDY    34  30  85 W14       29.95R FOG     WCI  25
6HR MIN TEMP:  29; 6HR MAX TEMP:  34; 6HR PCP: TRACE;

FREEPORT*      CLOUDY    32  31  94 W10G18    29.95S WCI  24
ROCHELLE*      CLOUDY    32  31  96 W15       29.95R WCI  22
DE KALB*       CLOUDY    32  31  96 W9        29.94R WCI  24
$$

ILZ005-006-012>014-019>023-050700-
NORTHEAST ILLINOIS

CITY           SKY/WX    TMP DP  RH WIND       PRES   REMARKS
CHICAGO-OHARE  CLOUDY    32  31  96 W10       29.92R FOG     WCI  24
6HR MIN TEMP:  27; 6HR MAX TEMP:  32; 6HR PCP:  0.01;

CHICAGO-MIDWAY CLOUDY    33  30  88 W10       29.93S FOG     WCI  25
6HR MIN TEMP:  30; 6HR MAX TEMP:  33; 6HR PCP: TRACE;

AURORA         CLOUDY    34  31  88 W13       29.94S WCI  25
6HR MIN TEMP:  29; 6HR MAX TEMP:  34; 6HR PCP:  0.02;

LANSING*       CLOUDY    33  33 100 W6        29.95S FOG     WCI  27
JOLIET*        CLOUDY    33  33  98 W3        29.96S FOG
WAUKEGAN       CLOUDY    32  30  92 W8        29.90R WCI  25
6HR MIN TEMP:  30; 6HR MAX TEMP:  32; 6HR PCP: TRACE;

DUPAGE AIRPORT CLOUDY    33  29  85 W14G25    29.92S WCI  23
6HR MIN TEMP:  28; 6HR MAX TEMP:  33; 6HR PCP: TRACE;

KANKAKEE*      CLOUDY    32  32  99 W10       29.97S WCI  24
WHEELING       CLOUDY    33  31  92 W10       29.93R WCI  25
6HR MIN TEMP:  30; 6HR MAX TEMP:  33; 6HR PCP: TRACE;

MORRIS*        CLOUDY    33  32  96 W3        29.96R FOG
ROMEOVILLE*    CLOUDY    32  32 100 W7        29.95S FOG     WCI  26
NORTHERLY ISL    N/A     33  31  92 SW10        N/A  WCI  25
$$

LMZ740>746-050700-
SOUTHERN LAKE MICHIGAN

STATION/POSITION SKY/WX   TEMP    WIND        PRES    VSBY  WAVE
                          AIR SEA DIR/SP/G                  HT/PER
                          (F)     (DEG/KT/KT) (MB)    (MI)  (FT/S)
HARRISON CRIB              35     260/ 17/ 19   N/A
BURNHAM HARBOR             33     260/ 10/ 16   N/A
CALUMET HARBOR                    230/ 10/ 14 1013.1R
BURNS HARBOR               35     230/ 15/ 20 1014.2R
$$

ILZ025>027-034>036-040-047-049-050-058-095>099-050700-
WEST-CENTRAL ILLINOIS

CITY           SKY/WX    TMP DP  RH WIND       PRES   REMARKS
QUINCY         PTCLDY    32  31  96 S7        30.00S FOG     WCI  26
GALESBURG*     CLOUDY    32  32  99 SW6       29.98S WCI  27
MACOMB*        CLOUDY    34  34 100 SW5       30.02S WCI  30
JACKSONVILLE*  CLOUDY    33  32  94 CALM      30.02S
PITTSFIELD*    CLOUDY    35  34  96 CALM      30.03S
$$

ILZ028>032-037-038-041>044-048-051>054-059>061-050700-
CENTRAL ILLINOIS

CITY           SKY/WX    TMP DP  RH WIND       PRES   REMARKS
PONTIAC        CLOUDY    34  34 100 W10       29.99R WCI  26
DECATUR        CLOUDY    34  32  92 W10       30.02R WCI  26
PEORIA         CLOUDY    34  32  92 W9        30.00R WCI  27
6HR MIN TEMP:  33; 6HR MAX TEMP:  34;

LACON*         CLOUDY    33  32  95 W9        29.99R WCI  26
LINCOLN*       CLOUDY    35  33  93 CALM      30.02R
SPRINGFIELD    CLOUDY    35  32  88 W9        30.03R WCI  28
6HR MIN TEMP:  34; 6HR MAX TEMP:  36;

TAYLORVILLE    CLOUDY    34  32  93 W6        30.03R WCI  29
6HR MIN TEMP:  33; 6HR MAX TEMP:  34; 6HR PCP:  0.05;

$$

ILZ033-039-045-046-055>057-062-063-050700-
EAST-CENTRAL ILLINOIS

CITY           SKY/WX    TMP DP  RH WIND       PRES   REMARKS
CHAMPAIGN      CLOUDY    34  31  88 W9        29.99S WCI  27
RANTOUL*       CLOUDY    34  33  96 W9        29.99S WCI  27
MATTOON        CLOUDY    34  30  85 W8        30.01S WCI  27
PARIS*         CLOUDY    34  32  92 W8        30.02S WCI  27
$$

ILZ079-100>102-050700-
SOUTHWEST ILLINOIS

CITY           SKY/WX    TMP DP  RH WIND       PRES   REMARKS
ALTON          CLOUDY    37  33  87 CALM      30.05R
BELLEVILLE     CLOUDY    38  36  93 NW2       30.05R
CAHOKIA*       CLEAR     37  31  78 CALM      30.05R
SPARTA*        CLOUDY    38  33  80 NW6       30.08R WCI  34
$$

ILZ064>066-069>071-074>076-080>082-084>086-088>090-092>094-050700-
SOUTH-CENTRAL ILLINOIS

CITY           SKY/WX    TMP DP  RH WIND       PRES   REMARKS
CARBONDALE     CLOUDY    40  36  86 W3        30.07R
6HR MIN TEMP:  40; 6HR MAX TEMP:  41;

CAIRO*         CLOUDY    41  38  88 CALM      30.07S
EFFINGHAM*     CLOUDY    35  35  99 W5        30.05S WCI  31
MARION         CLOUDY    41  37  87 CALM      30.07R
CENTRALIA*     CLOUDY    37  35  91 NW9       30.05R WCI  31
SALEM*         CLOUDY    37  34  87 NW3       30.05S
METROPOLIS*    CLOUDY    40  38  89 CALM      30.07F
$$

ILZ067-068-072-073-078-083-087-091-050700-
SOUTHEAST ILLINOIS

CITY           SKY/WX    TMP DP  RH WIND       PRES   REMARKS
LAWRENCEVILLE  CLOUDY    37  32  82 NW8       30.05F WCI  31
FLORA*         CLOUDY    37  34  86 W9        30.06S WCI  31
FAIRFIELD*     CLOUDY    37  34  87 CALM      30.04F
HARRISBURG*    CLOUDY    40  37  88 CALM      30.06R
ROBINSON*      CLOUDY    36  32  86 W8        30.05S WCI  29
CARMI*         CLOUDY    38  35  89 N3        30.05S
$$

ABBREVIATIONS USED IN REMARKS
   TC - TEMPERATURE IN CELSIUS
  WCI - WIND CHILL INDEX
   HX - HEAT INDEX
  VSB - VISIBILITY
$$





USA.gov is the U.S. government's official web portal to all federal, state and local government web resources and services.